Flag for New Zealand Weather past 2 weeks in Auckland, New Zealand

Now
66 °F

Scattered clouds.


Feels Like: 66 °F
Forecast: 61 / 67 °F
Wind: 18 mph from Southwest

Location: Auckland Airport


UV Index: 3 (Moderate)

Visibility: N/A


Pressure: 29.95 "Hg

Humidity: 68%

Dew point: 55 °F

Location of AucklandLocation

Historic Weather in Auckland

°F

Auckland temperature yesterday

Maximum temperature yesterday: 68 °F (at 10:30 AM)
Minimum temperature yesterday: 59 °F (at 12:30 AM)
Average temperature yesterday: 61 °F

Past Weeks' High & Low Weather Summary

 TemperatureHumidityPressure
High75 °F (Apr 10, 3:00 PM)100% (Apr 7, 7:00 AM)30.21 "Hg (Apr 7, 7:00 AM)
Low52 °F (Apr 13, 5:30 AM)53% (Apr 13, 12:00 PM)29.36 "Hg (Apr 17, 10:30 AM)
Average66 °F84%29.88 "Hg
* Reported Apr 6 10:00 AM — Apr 21 10:00 AM, Auckland, Weather by CustomWeather, © 2014

Note: Actual official high and low records may vary slightly from our data, if they occured in-between our weather recording intervals... More about our weather records

Advertising

Historic Weather Conditions — Data for Previous 24 hours

 ConditionsComfort  
Time TempWeatherWind HumidityBarometerVisibility
10:00 AM
Apr 21
64 °FScattered clouds.20 mph73%29.95 "HgN/A
9:00 AM64 °FBroken clouds.12 mph78%29.92 "HgN/A
8:30 AM61 °FPartly sunny.8 mph88%29.92 "HgN/A
8:00 AM61 °FSprinkles. Partly sunny.9 mph88%29.92 "HgN/A
7:30 AM59 °FMostly cloudy.16 mph94%29.92 "HgN/A
7:00 AM61 °FBroken clouds.13 mph83%29.89 "HgN/A
6:30 AM63 °FOvercast.13 mph73%29.89 "HgN/A
6:00 AM61 °FPassing clouds.13 mph83%29.86 "HgN/A
5:30 AM59 °FPassing clouds.10 mph82%29.86 "HgN/A
5:00 AM61 °FPartly cloudy.12 mph77%29.86 "HgN/A
4:30 AM61 °FPassing clouds.24 mph83%29.86 "HgN/A
4:00 AM59 °FPassing clouds.12 mph88%29.86 "HgN/A
3:30 AM59 °FPartly cloudy.6 mph88%29.86 "HgN/A
3:00 AM59 °FOvercast.6 mph88%29.86 "HgN/A
2:30 AM61 °FPassing clouds.9 mph83%29.86 "HgN/A
2:00 AM59 °FPartly cloudy.8 mph88%29.86 "HgN/A
1:30 AM59 °FPassing clouds.8 mph82%29.86 "HgN/A
1:00 AM61 °FPassing clouds.10 mph83%29.86 "HgN/A
12:30 AM61 °FPassing clouds.12 mph83%29.86 "HgN/A
12:00 AM59 °FCool.9 mph88%29.86 "HgN/A
11:30 PM
Apr 20
59 °FPassing clouds.10 mph88%29.86 "HgN/A
11:00 PM59 °FSprinkles. Partly cloudy.15 mph88%29.86 "HgN/A
10:30 PM59 °FPassing clouds.8 mph88%29.86 "HgN/A
10:00 PM61 °FPassing clouds.8 mph83%29.83 "HgN/A
9:30 PM61 °FPassing clouds.12 mph83%29.83 "HgN/A
9:00 PM59 °FLight rain. Partly cloudy.7 mph94%29.83 "HgN/A
8:30 PM61 °FSprinkles. Passing clouds.10 mph88%29.83 "HgN/A
8:00 PM61 °FPassing clouds.7 mph88%29.83 "HgN/A
7:30 PM59 °FSprinkles. Partly cloudy.6 mph94%29.80 "HgN/A
7:00 PM61 °FSprinkles. Partly cloudy.5 mph88%29.80 "HgN/A
6:30 PM61 °FCool.3 mph88%29.80 "HgN/A
6:00 PM63 °FPassing clouds.3 mph83%29.80 "HgN/A
5:30 PM64 °FMostly cloudy.9 mph88%29.77 "HgN/A
5:00 PM64 °FLight rain. Passing clouds.10 mph88%29.77 "HgN/A
4:30 PM66 °FMild.12 mph83%29.77 "HgN/A
4:00 PM64 °FPassing clouds.8 mph94%29.77 "HgN/A
3:30 PM63 °FSprinkles. Broken clouds.3 mph88%29.77 "HgN/A
3:00 PM61 °FSprinkles. Mostly cloudy.12 mph88%29.77 "HgN/A
2:30 PM63 °FSprinkles. Cloudy.9 mph94%29.77 "HgN/A
2:00 PM63 °FLight rain. Mostly cloudy.13 mph94%29.77 "HgN/A
1:30 PM63 °FLight rain. Overcast.14 mph94%29.77 "HgN/A
1:00 PM63 °FLight rain. Overcast.9 mph94%29.80 "HgN/A
12:30 PM61 °FRain. Overcast.12 mph100%29.80 "Hg6 mi
12:00 PM63 °FLight rain. Partly sunny.14 mph94%29.80 "HgN/A
11:30 AM64 °FSprinkles. Partly sunny.13 mph94%29.80 "HgN/A
11:00 AM66 °FSprinkles. Broken clouds.15 mph83%29.80 "HgN/A
Weather by CustomWeather, © 2014

See weather overview